Mankato, MN

2:10 AM CST on December 16, 2019 (GMT -0600)
Mankato Regional

Weather History for KMKT - October, 2019

Change the Weather History Date:

Tuesday, October 22, 2019

  Actual Average Record
Temperature  
Mean Temperature 44 °F -  
Max Temperature 48 °F 53 °F 73 °F (2003)
Min Temperature 37 °F 36 °F 23 °F (2006)
Degree Days  
Heating Degree Days 22    
Moisture  
Dew Point 35 °F    
Average Humidity 79    
Maximum Humidity 100    
Minimum Humidity 48    
Precipitation  
Precipitation 0.03 in - - ()
Sea Level Pressure  
Sea Level Pressure 29.56 in    
Wind  
Wind Speed 23 mph ()    
Max Wind Speed 31 mph    
Max Gust Speed 45 mph    
Visibility 9.3 miles    
Events Rain    
Averages and records for this station are not official NWS values.
T = Trace of Precipitation, MM = Missing Value Source: Averaged Metar Reports

Daily Weather History Graph

Daily Weather History Graph

Search for Another Location

Airport or City:

Astronomy

Oct. 22, 2019 Rise Set
Actual Time 7:39 AM CDT 6:20 PM CDT
Civil Twilight 7:09 AM CDT 6:49 PM CDT
Nautical Twilight 6:35 AM CDT 7:23 PM CDT
Astronomical Twilight 6:02 AM CDT 7:57 PM CDT
Moon 12:31 AM CDT (10/22) 3:47 PM CDT (10/22)
Length of Visible Light 11h 40m
Length of Day
10h 41m
Last Quarter, 37% of the Moon is Illuminated
Oct 22
Last Quarter
Oct 27
New
Nov 4
First Quarter
Nov 12
Full
Nov 19
Last Quarter

Hourly Weather History & Observations

Time (CDT) Temp. Windchill Dew Point Humidity Pressure Visibility Wind Dir Wind Speed Gust Speed Precip Events Conditions
12:12 AM 39.2 °F 27.8 °F 39.2 °F 100% 29.25 in 10.0 mi NW 27.6 mph 38.0 mph 0.00 in Rain Light Rain
12:56 AM 41.0 °F 30.0 °F 39.9 °F 96% 29.30 in 7.0 mi NW 28.8 mph 35.7 mph N/A Rain Light Rain
1:56 AM 43.0 °F 34.0 °F 42.1 °F 97% 29.34 in 6.0 mi WNW 21.9 mph 28.8 mph N/A Rain Light Rain
2:21 AM 42.8 °F 32.3 °F 41.0 °F 93% 29.33 in 5.0 mi WNW 29.9 mph 35.7 mph 0.02 in Rain Light Rain
2:42 AM 42.8 °F 33.1 °F 41.0 °F 93% 29.35 in 8.0 mi WNW 25.3 mph 39.1 mph 0.03 in Rain Light Rain
2:56 AM 42.1 °F 31.9 °F 41.0 °F 96% 29.37 in 6.0 mi NW 26.5 mph 39.1 mph 0.03 in Rain Light Rain
3:56 AM 41.0 °F 29.7 °F 39.9 °F 96% 29.40 in 10.0 mi WNW 31.1 mph 38.0 mph 0.00 in Rain Light Rain
4:56 AM 41.0 °F 30.2 °F 39.0 °F 93% 29.44 in 10.0 mi WNW 27.6 mph 41.4 mph 0.00 in Rain Light Rain
5:56 AM 39.9 °F 28.4 °F 39.0 °F 97% 29.47 in 9.0 mi WNW 29.9 mph 44.9 mph 0.00 in Rain Light Rain
6:56 AM 39.9 °F 29.0 °F 39.0 °F 97% 29.50 in 10.0 mi WNW 26.5 mph 42.6 mph 0.00 in Rain Light Rain
7:56 AM 39.0 °F 28.5 °F 37.9 °F 96% 29.53 in 10.0 mi WNW 23.0 mph 39.1 mph 0.00 in Rain Light Rain
8:56 AM 39.0 °F 27.2 °F 37.0 °F 93% 29.56 in 10.0 mi WNW 29.9 mph 40.3 mph 0.00 in Rain Light Rain
9:56 AM 39.0 °F 28.0 °F 36.0 °F 89% 29.58 in 10.0 mi West 25.3 mph 33.4 mph 0.00 in   Overcast
10:52 AM 39.2 °F 27.6 °F 35.6 °F 87% 29.56 in 10.0 mi WNW 28.8 mph 40.3 mph N/A   Overcast
10:56 AM 39.9 °F 29.0 °F 35.1 °F 83% 29.60 in 10.0 mi WNW 26.5 mph 40.3 mph N/A   Overcast
11:56 AM 39.9 °F 29.7 °F 35.1 °F 83% 29.63 in 10.0 mi WNW 23.0 mph 40.3 mph N/A   Overcast
12:56 PM 42.1 °F 32.1 °F 34.0 °F 73% 29.62 in 10.0 mi WNW 25.3 mph 33.4 mph N/A   Overcast
1:56 PM 45.0 °F 36.2 °F 35.1 °F 68% 29.63 in 10.0 mi WNW 24.2 mph 33.4 mph N/A   Overcast
2:26 PM 46.4 °F 38.1 °F 33.8 °F 62% 29.61 in 10.0 mi WNW 24.2 mph 36.8 mph N/A   Mostly Cloudy
2:56 PM 46.9 °F - 34.0 °F 61% 29.64 in 10.0 mi WNW 31.1 mph 38.0 mph N/A   Overcast
3:56 PM 48.0 °F - 30.9 °F 52% 29.66 in 10.0 mi West 27.6 mph 39.1 mph N/A   Overcast
4:56 PM 48.0 °F - 28.9 °F 48% 29.69 in 10.0 mi WNW 25.3 mph 34.5 mph N/A   Overcast
5:56 PM 46.9 °F - 28.0 °F 48% 29.72 in 10.0 mi WNW 24.2 mph 27.6 mph N/A   Overcast
6:56 PM 45.0 °F 37.6 °F 28.0 °F 52% 29.75 in 10.0 mi WNW 17.3 mph 24.2 mph N/A   Overcast
7:56 PM 43.0 °F 36.8 °F 30.0 °F 60% 29.77 in 10.0 mi West 11.5 mph - N/A   Overcast
9:56 PM 41.0 °F 33.1 °F 30.0 °F 65% 29.79 in 10.0 mi West 15.0 mph - N/A   Scattered Clouds
10:56 PM 39.0 °F 31.8 °F 30.0 °F 70% 29.80 in 10.0 mi West 11.5 mph - N/A   Clear
11:56 PM 37.0 °F 29.8 °F 30.0 °F 76% 29.79 in 10.0 mi West 10.4 mph - N/A   Clear